Mia-s — V2EI7 — position and weather

sailwx.info

Track history (hours):
 
Tides and Currents Weather Stations Pressure Air Temp Water Temp Dewpoint Dewpoint Depression Visibility Wind Speed Wind Dir Waves Ship Positions

Mia-s

Last reported at 2014-Oct-26 09:32 UTC. Time now 2014-Oct-26 09:38 UTC.
Position N 49°18' W 123°04'.

Length 190 m; draft 9.2 m.

Type: Cargo ship. MMSI: 305442000.

Date/timePositionNaut miles runAvg speedWind from/ knotsBaromVisibWave heightAir tempDewpointWater temp
2014-Oct-26 09:32N 49°18' W 123°04'0 0.0
2014-Oct-26 08:32N 49°18' W 123°04'0 0.0
2014-Oct-26 07:29N 49°18' W 123°04'0 0.0
2014-Oct-26 06:32N 49°18' W 123°04'0 0.0
2014-Oct-26 05:32N 49°18' W 123°04'0 0.0
2014-Oct-26 04:32N 49°18' W 123°04'0 0.0
2014-Oct-26 03:32N 49°18' W 123°04'0 0.0
2014-Oct-26 02:32N 49°18' W 123°04'0 0.0
2014-Oct-26 01:29N 49°18' W 123°04'0 0.0
2014-Oct-26 00:32N 49°18' W 123°04'0 0.0
2014-Oct-25 23:26N 49°18' W 123°04'0 0.0
2014-Oct-25 22:32N 49°18' W 123°04'0 0.0
2014-Oct-25 21:32N 49°18' W 123°04'0 0.0
2014-Oct-25 20:32N 49°18' W 123°04'0 0.0
2014-Oct-25 19:32N 49°18' W 123°04'0 0.0
2014-Oct-25 18:32N 49°18' W 123°04'0 0.0
2014-Oct-25 17:32N 49°18' W 123°04'0 0.0
2014-Oct-25 16:32N 49°18' W 123°04'0 0.0
2014-Oct-25 15:32N 49°18' W 123°04'0 0.0
2014-Oct-25 14:32N 49°18' W 123°04'0 0.0
2014-Oct-25 13:32N 49°18' W 123°04'0 0.0
2014-Oct-25 12:29N 49°18' W 123°04'0 0.0
2014-Oct-25 11:32N 49°18' W 123°04'0 0.0
2014-Oct-25 10:32N 49°18' W 123°04'0 0.0
2014-Oct-25 09:32N 49°18' W 123°04'0 0.0
2014-Oct-25 08:32N 49°18' W 123°04'0 0.0
2014-Oct-25 07:32N 49°18' W 123°04'0 0.0
2014-Oct-25 06:32N 49°18' W 123°04'0 0.0
2014-Oct-25 05:32N 49°18' W 123°04'0 0.0
2014-Oct-25 04:32N 49°18' W 123°04'0 0.0
2014-Oct-25 03:32N 49°18' W 123°04'0 0.0
2014-Oct-25 02:32N 49°18' W 123°04'0 0.0
2014-Oct-25 01:32N 49°18' W 123°04'0 0.0
2014-Oct-25 00:29N 49°18' W 123°04'1 1.3
2014-Oct-24 23:33N 49°18' W 123°05'4 4.5
2014-Oct-24 22:33N 49°18' W 123°12'0 0.0
2014-Oct-24 21:30N 49°18' W 123°12'0 0.0
2014-Oct-24 20:33N 49°18' W 123°12'0 0.1
2014-Oct-24 19:33N 49°18' W 123°12'0 0.2
2014-Oct-24 18:33N 49°18' W 123°13'0 0.1
2014-Oct-24 17:33N 49°18' W 123°13'0 0.0
2014-Oct-24 16:30N 49°18' W 123°13'0 0.0
2014-Oct-24 15:33N 49°18' W 123°13'0 0.0
2014-Oct-24 14:33N 49°18' W 123°13'0 0.0
2014-Oct-24 13:33N 49°18' W 123°13'0 0.0
2014-Oct-24 12:33N 49°18' W 123°13'0 0.0
2014-Oct-24 11:33N 49°18' W 123°13'0 0.0
2014-Oct-24 10:33N 49°18' W 123°13'0 0.1
2014-Oct-24 09:33N 49°18' W 123°12'0 0.1
2014-Oct-24 08:33N 49°18' W 123°12'0 0.0
2014-Oct-24 07:33N 49°18' W 123°12'0 0.0
2014-Oct-24 06:33N 49°18' W 123°12'0 0.0
2014-Oct-24 05:33N 49°18' W 123°12'4 4.4
2014-Oct-24 04:33N 49°18' W 123°06'1 0.8
2014-Oct-24 03:33N 49°17' W 123°05'0 0.0
2014-Oct-24 02:33N 49°17' W 123°05'0 0.0
2014-Oct-24 01:33N 49°17' W 123°05'0 0.0
2014-Oct-24 00:33N 49°17' W 123°05'0 0.0
2014-Oct-23 23:33N 49°17' W 123°05'0 0.0
2014-Oct-23 22:33N 49°17' W 123°05'0 0.0
2014-Oct-23 21:33N 49°17' W 123°05'0 0.0
2014-Oct-23 20:33N 49°17' W 123°05'0 0.0
2014-Oct-23 19:30N 49°17' W 123°05'0 0.0
2014-Oct-23 18:33N 49°17' W 123°05'0 0.0
2014-Oct-23 17:33N 49°17' W 123°05'0 0.0
2014-Oct-23 16:33N 49°17' W 123°05'0 0.0
2014-Oct-23 15:33N 49°17' W 123°05'0 0.0
2014-Oct-23 14:33N 49°17' W 123°05'0 0.0
2014-Oct-23 13:33N 49°17' W 123°05'0 0.0
2014-Oct-23 12:33N 49°17' W 123°05'0 0.0
2014-Oct-23 11:33N 49°17' W 123°05'0 0.0
2014-Oct-23 10:33N 49°17' W 123°05'0 0.0
2014-Oct-23 09:33N 49°17' W 123°05'0 0.0
2014-Oct-23 08:33N 49°17' W 123°05'0 0.0
2014-Oct-23 07:33N 49°17' W 123°05'0 0.0
2014-Oct-23 06:33N 49°17' W 123°05'0 0.0
2014-Oct-23 05:33N 49°17' W 123°05'0 0.0
2014-Oct-23 04:33N 49°17' W 123°05'0 0.0
2014-Oct-23 03:33N 49°17' W 123°05'0 0.0
2014-Oct-23 02:33N 49°17' W 123°05'0 0.0
2014-Oct-23 01:33N 49°17' W 123°05'0 0.0
2014-Oct-23 00:33N 49°17' W 123°05'0 0.0
2014-Oct-22 23:33N 49°17' W 123°05'0 0.0
2014-Oct-22 22:33N 49°17' W 123°05'0 0.0
2014-Oct-22 21:33N 49°17' W 123°05'0 0.0
2014-Oct-22 20:33N 49°17' W 123°05'0 0.0
2014-Oct-22 19:33N 49°17' W 123°05'0 0.0
2014-Oct-22 18:33N 49°17' W 123°05'0 0.0
2014-Oct-22 17:33N 49°17' W 123°05'0 0.0
2014-Oct-22 16:33N 49°17' W 123°05'0 0.0
2014-Oct-22 15:33N 49°17' W 123°05'0 0.0
2014-Oct-22 14:33N 49°17' W 123°05'0 0.0
2014-Oct-22 13:33N 49°17' W 123°05'0 0.0
2014-Oct-22 12:33N 49°17' W 123°05'0 0.0
2014-Oct-22 11:33N 49°17' W 123°05'0 0.0
2014-Oct-22 10:33N 49°17' W 123°05'0 0.0
2014-Oct-22 09:33N 49°17' W 123°05'0 0.0
2014-Oct-22 08:33N 49°17' W 123°05'0 0.0
2014-Oct-22 07:33N 49°17' W 123°05'0 0.0
2014-Oct-22 06:33N 49°17' W 123°05'0 0.0
2014-Oct-22 05:33N 49°17' W 123°05'0 0.0
2014-Oct-22 04:33N 49°17' W 123°05'0 0.0
2014-Oct-22 03:33N 49°17' W 123°05'0 0.0
2014-Oct-22 02:30N 49°17' W 123°05'0 0.0
2014-Oct-22 01:33N 49°17' W 123°05'0 0.0
2014-Oct-22 00:33N 49°17' W 123°05'0 0.0
2014-Oct-21 23:33N 49°17' W 123°05'2 1.8
2014-Oct-21 22:34N 49°18' W 123°07'4 4.1
2014-Oct-21 21:31N 49°18' W 123°14'0 0.0
2014-Oct-21 20:28N 49°18' W 123°14'0 0.0
2014-Oct-21 19:31N 49°18' W 123°14'0 0.1
2014-Oct-21 18:28N 49°18' W 123°14'0 0.0
2014-Oct-21 17:31N 49°18' W 123°14'0 0.1
2014-Oct-21 16:31N 49°18' W 123°14'0 0.1
2014-Oct-21 15:31N 49°18' W 123°13'0 0.0
2014-Oct-21 14:31N 49°18' W 123°13'0 0.0
2014-Oct-21 13:31N 49°18' W 123°14'0 0.0
2014-Oct-21 12:31N 49°18' W 123°13'0 0.1
2014-Oct-21 11:31N 49°18' W 123°13'0 0.1
2014-Oct-21 10:31N 49°18' W 123°13'0 0.0
2014-Oct-21 09:31N 49°18' W 123°13'0 0.0
2014-Oct-21 08:31N 49°18' W 123°13'0 0.0
2014-Oct-21 07:31N 49°18' W 123°13'0 0.0
2014-Oct-21 06:31N 49°18' W 123°13'0 0.1
2014-Oct-21 05:28N 49°18' W 123°13'0 0.1
2014-Oct-21 04:31N 49°18' W 123°14'0 0.0
2014-Oct-21 03:31N 49°18' W 123°14'0 0.0
2014-Oct-21 02:28N 49°18' W 123°14'0 0.1
2014-Oct-21 01:31N 49°18' W 123°14'0 0.0
2014-Oct-21 00:28N 49°18' W 123°14'0 0.1
2014-Oct-20 23:31N 49°18' W 123°14'0 0.0
2014-Oct-20 22:31N 49°18' W 123°14'0 0.1
2014-Oct-20 21:31N 49°18' W 123°14'0 0.1
2014-Oct-20 20:31N 49°18' W 123°14'0 0.0
2014-Oct-20 19:31N 49°18' W 123°13'0 0.1
2014-Oct-20 18:28N 49°18' W 123°13'0 0.1
2014-Oct-20 17:31N 49°18' W 123°13'0 0.1
2014-Oct-20 16:31N 49°18' W 123°13'0 0.1
2014-Oct-20 15:31N 49°18' W 123°13'0 0.0
2014-Oct-20 14:31N 49°18' W 123°13'0 0.1
2014-Oct-20 13:31N 49°18' W 123°14'0 0.1
2014-Oct-20 12:31N 49°18' W 123°14'0 0.2
2014-Oct-20 11:28N 49°18' W 123°13'0 0.1
2014-Oct-20 10:31N 49°18' W 123°13'0 0.0
2014-Oct-20 09:31N 49°18' W 123°13'0 0.0
2014-Oct-20 08:31N 49°18' W 123°13'0 0.0
2014-Oct-20 07:31N 49°18' W 123°13'0 0.0
2014-Oct-20 06:31N 49°18' W 123°13'0 0.1
2014-Oct-20 05:31N 49°18' W 123°13'0 0.1
2014-Oct-20 04:31N 49°18' W 123°14'0 0.0
2014-Oct-20 03:28N 49°18' W 123°14'0 0.0
2014-Oct-20 02:28N 49°18' W 123°14'0 0.0
2014-Oct-20 01:31N 49°18' W 123°14'0 0.0
2014-Oct-20 00:28N 49°18' W 123°14'0 0.0
2014-Oct-19 23:28N 49°18' W 123°14'2 2.0
2014-Oct-19 22:33N 49°19' W 123°12'3 3.1
2014-Oct-19 21:31N 49°19' W 123°07'0 0.0
2014-Oct-19 20:32N 49°19' W 123°07'0 0.0
2014-Oct-19 19:32N 49°19' W 123°07'0 0.0
2014-Oct-19 18:32N 49°19' W 123°07'0 0.0
2014-Oct-19 17:32N 49°19' W 123°07'0 0.0
2014-Oct-19 16:32N 49°19' W 123°07'0 0.0
2014-Oct-19 15:32N 49°19' W 123°07'0 0.0
2014-Oct-19 14:32N 49°19' W 123°07'0 0.0
2014-Oct-19 13:32N 49°19' W 123°07'0 0.0
2014-Oct-19 12:32N 49°19' W 123°07'0 0.0
2014-Oct-19 11:32N 49°19' W 123°07'0 0.0
2014-Oct-19 10:29N 49°19' W 123°07'0 0.0
2014-Oct-19 09:32N 49°19' W 123°07'0 0.0
2014-Oct-19 08:32N 49°19' W 123°07'0 0.0
2014-Oct-19 07:32N 49°19' W 123°07'0 0.0
2014-Oct-19 06:32N 49°19' W 123°07'0 0.0
2014-Oct-19 05:32N 49°19' W 123°07'0 0.0
2014-Oct-19 04:32N 49°19' W 123°07'0 0.0
2014-Oct-19 03:32N 49°19' W 123°07'0 0.0
2014-Oct-19 02:32N 49°19' W 123°07'0 0.0
2014-Oct-19 01:32N 49°19' W 123°07'0 0.0
2014-Oct-19 00:32N 49°19' W 123°07'0 0.0
2014-Oct-18 23:32N 49°19' W 123°07'0 0.0
2014-Oct-18 22:29N 49°19' W 123°07'0 0.0
2014-Oct-18 21:32N 49°19' W 123°07'0 0.0
2014-Oct-18 20:32N 49°19' W 123°07'0 0.0
2014-Oct-18 19:32N 49°19' W 123°07'0 0.0
2014-Oct-18 18:32N 49°19' W 123°07'0 0.0
2014-Oct-18 17:32N 49°19' W 123°07'0 0.0
2014-Oct-18 16:29N 49°19' W 123°07'0 0.0
2014-Oct-18 15:32N 49°19' W 123°07'0 0.0
2014-Oct-18 14:32N 49°19' W 123°07'0 0.0
2014-Oct-18 13:32N 49°19' W 123°07'0 0.0
2014-Oct-18 12:32N 49°19' W 123°07'0 0.0
2014-Oct-18 11:32N 49°19' W 123°07'0 0.0
2014-Oct-18 10:32N 49°19' W 123°07'0 0.0
2014-Oct-18 09:32N 49°19' W 123°07'0 0.0
2014-Oct-18 08:32N 49°19' W 123°07'0 0.0
2014-Oct-18 07:32N 49°19' W 123°07'0 0.0
2014-Oct-18 06:32N 49°19' W 123°07'0 0.0
2014-Oct-18 05:32N 49°19' W 123°07'0 0.0
2014-Oct-18 04:32N 49°19' W 123°07'0 0.0
2014-Oct-18 03:32N 49°19' W 123°07'0 0.0
2014-Oct-18 02:32N 49°19' W 123°07'0 0.0
2014-Oct-18 01:32N 49°19' W 123°07'0 0.0
2014-Oct-18 00:32N 49°19' W 123°07'0 0.0
2014-Oct-17 23:32N 49°19' W 123°07'0 0.0
2014-Oct-17 22:32N 49°19' W 123°07'0 0.0
2014-Oct-17 21:32N 49°19' W 123°07'0 0.0
2014-Oct-17 20:32N 49°19' W 123°07'0 0.0
2014-Oct-17 19:32N 49°19' W 123°07'0 0.0
2014-Oct-17 18:32N 49°19' W 123°07'0 0.0
2014-Oct-17 17:32N 49°19' W 123°07'0 0.0
2014-Oct-17 16:32N 49°19' W 123°07'0 0.0
2014-Oct-17 15:32N 49°19' W 123°07'0 0.0
2014-Oct-17 14:32N 49°19' W 123°07'0 0.0
2014-Oct-17 13:32N 49°19' W 123°07'0 0.0
2014-Oct-17 12:32N 49°19' W 123°07'0 0.0
2014-Oct-17 11:32N 49°19' W 123°07'0 0.0
2014-Oct-17 10:32N 49°19' W 123°07'0 0.0
2014-Oct-17 09:32N 49°19' W 123°07'0 0.0
2014-Oct-17 08:32N 49°19' W 123°07'0 0.0
2014-Oct-17 07:32N 49°19' W 123°07'0 0.0
2014-Oct-17 06:32N 49°19' W 123°07'0 0.0
2014-Oct-17 05:32N 49°19' W 123°07'0 0.0
2014-Oct-17 04:32N 49°19' W 123°07'0 0.0
2014-Oct-17 03:32N 49°19' W 123°07'0 0.0
2014-Oct-17 02:32N 49°19' W 123°07'0 0.0
2014-Oct-17 01:32N 49°19' W 123°07'0 0.0
2014-Oct-17 00:32N 49°19' W 123°07'0 0.0
2014-Oct-16 23:32N 49°19' W 123°07'0 0.0
2014-Oct-16 22:32N 49°19' W 123°07'0 0.0
2014-Oct-16 21:32N 49°19' W 123°07'0 0.0
2014-Oct-16 20:32N 49°19' W 123°07'0 0.0
2014-Oct-16 19:32N 49°19' W 123°07'0 0.0
2014-Oct-16 18:32N 49°19' W 123°07'0 0.0
2014-Oct-16 17:32N 49°19' W 123°07'0 0.0
2014-Oct-16 16:32N 49°19' W 123°07'0 0.0
2014-Oct-16 15:32N 49°19' W 123°07'0 0.0
2014-Oct-16 14:32N 49°19' W 123°07'0 0.0
2014-Oct-16 13:32N 49°19' W 123°07'3 3.1
2014-Oct-16 12:34N 49°19' W 123°12'2 1.7
2014-Oct-16 11:33N 49°18' W 123°13'0 0.0
2014-Oct-16 10:33N 49°18' W 123°13'0 0.0
2014-Oct-16 09:33N 49°18' W 123°13'  
Track history (hours):
 
Tides and Currents Weather Stations Pressure Air Temp Water Temp Dewpoint Dewpoint Depression Visibility Wind Speed Wind Dir Waves Ship Positions

Mia-s

Last reported at 2014-Oct-26 09:32 UTC. Time now 2014-Oct-26 09:38 UTC.
Position N 49°18' W 123°04'.

Length 190 m; draft 9.2 m.

Type: Cargo ship. MMSI: 305442000.

Date/timePositionNaut miles runAvg speedWind from/ knotsBaromVisibWave heightAir tempDewpointWater temp
2014-Oct-26 09:32N 49°18' W 123°04'0 0.0
2014-Oct-26 08:32N 49°18' W 123°04'0 0.0
2014-Oct-26 07:29N 49°18' W 123°04'0 0.0
2014-Oct-26 06:32N 49°18' W 123°04'0 0.0
2014-Oct-26 05:32N 49°18' W 123°04'0 0.0
2014-Oct-26 04:32N 49°18' W 123°04'0 0.0
2014-Oct-26 03:32N 49°18' W 123°04'0 0.0
2014-Oct-26 02:32N 49°18' W 123°04'0 0.0
2014-Oct-26 01:29N 49°18' W 123°04'0 0.0
2014-Oct-26 00:32N 49°18' W 123°04'0 0.0
2014-Oct-25 23:26N 49°18' W 123°04'0 0.0
2014-Oct-25 22:32N 49°18' W 123°04'0 0.0
2014-Oct-25 21:32N 49°18' W 123°04'0 0.0
2014-Oct-25 20:32N 49°18' W 123°04'0 0.0
2014-Oct-25 19:32N 49°18' W 123°04'0 0.0
2014-Oct-25 18:32N 49°18' W 123°04'0 0.0
2014-Oct-25 17:32N 49°18' W 123°04'0 0.0
2014-Oct-25 16:32N 49°18' W 123°04'0 0.0
2014-Oct-25 15:32N 49°18' W 123°04'0 0.0
2014-Oct-25 14:32N 49°18' W 123°04'0 0.0
2014-Oct-25 13:32N 49°18' W 123°04'0 0.0
2014-Oct-25 12:29N 49°18' W 123°04'0 0.0
2014-Oct-25 11:32N 49°18' W 123°04'0 0.0
2014-Oct-25 10:32N 49°18' W 123°04'0 0.0
2014-Oct-25 09:32N 49°18' W 123°04'0 0.0
2014-Oct-25 08:32N 49°18' W 123°04'0 0.0
2014-Oct-25 07:32N 49°18' W 123°04'0 0.0
2014-Oct-25 06:32N 49°18' W 123°04'0 0.0
2014-Oct-25 05:32N 49°18' W 123°04'0 0.0
2014-Oct-25 04:32N 49°18' W 123°04'0 0.0
2014-Oct-25 03:32N 49°18' W 123°04'0 0.0
2014-Oct-25 02:32N 49°18' W 123°04'0 0.0
2014-Oct-25 01:32N 49°18' W 123°04'0 0.0
2014-Oct-25 00:29N 49°18' W 123°04'1 1.3
2014-Oct-24 23:33N 49°18' W 123°05'4 4.5
2014-Oct-24 22:33N 49°18' W 123°12'0 0.0
2014-Oct-24 21:30N 49°18' W 123°12'0 0.0
2014-Oct-24 20:33N 49°18' W 123°12'0 0.1
2014-Oct-24 19:33N 49°18' W 123°12'0 0.2
2014-Oct-24 18:33N 49°18' W 123°13'0 0.1
2014-Oct-24 17:33N 49°18' W 123°13'0 0.0
2014-Oct-24 16:30N 49°18' W 123°13'0 0.0
2014-Oct-24 15:33N 49°18' W 123°13'0 0.0
2014-Oct-24 14:33N 49°18' W 123°13'0 0.0
2014-Oct-24 13:33N 49°18' W 123°13'0 0.0
2014-Oct-24 12:33N 49°18' W 123°13'0 0.0
2014-Oct-24 11:33N 49°18' W 123°13'0 0.0
2014-Oct-24 10:33N 49°18' W 123°13'0 0.1
2014-Oct-24 09:33N 49°18' W 123°12'0 0.1
2014-Oct-24 08:33N 49°18' W 123°12'0 0.0
2014-Oct-24 07:33N 49°18' W 123°12'0 0.0
2014-Oct-24 06:33N 49°18' W 123°12'0 0.0
2014-Oct-24 05:33N 49°18' W 123°12'4 4.4
2014-Oct-24 04:33N 49°18' W 123°06'1 0.8
2014-Oct-24 03:33N 49°17' W 123°05'0 0.0
2014-Oct-24 02:33N 49°17' W 123°05'0 0.0
2014-Oct-24 01:33N 49°17' W 123°05'0 0.0
2014-Oct-24 00:33N 49°17' W 123°05'0 0.0
2014-Oct-23 23:33N 49°17' W 123°05'0 0.0
2014-Oct-23 22:33N 49°17' W 123°05'0 0.0
2014-Oct-23 21:33N 49°17' W 123°05'0 0.0
2014-Oct-23 20:33N 49°17' W 123°05'0 0.0
2014-Oct-23 19:30N 49°17' W 123°05'0 0.0
2014-Oct-23 18:33N 49°17' W 123°05'0 0.0
2014-Oct-23 17:33N 49°17' W 123°05'0 0.0
2014-Oct-23 16:33N 49°17' W 123°05'0 0.0
2014-Oct-23 15:33N 49°17' W 123°05'0 0.0
2014-Oct-23 14:33N 49°17' W 123°05'0 0.0
2014-Oct-23 13:33N 49°17' W 123°05'0 0.0
2014-Oct-23 12:33N 49°17' W 123°05'0 0.0
2014-Oct-23 11:33N 49°17' W 123°05'0 0.0
2014-Oct-23 10:33N 49°17' W 123°05'0 0.0
2014-Oct-23 09:33N 49°17' W 123°05'0 0.0
2014-Oct-23 08:33N 49°17' W 123°05'0 0.0
2014-Oct-23 07:33N 49°17' W 123°05'0 0.0
2014-Oct-23 06:33N 49°17' W 123°05'0 0.0
2014-Oct-23 05:33N 49°17' W 123°05'0 0.0
2014-Oct-23 04:33N 49°17' W 123°05'0 0.0
2014-Oct-23 03:33N 49°17' W 123°05'0 0.0
2014-Oct-23 02:33N 49°17' W 123°05'0 0.0
2014-Oct-23 01:33N 49°17' W 123°05'0 0.0
2014-Oct-23 00:33N 49°17' W 123°05'0 0.0
2014-Oct-22 23:33N 49°17' W 123°05'0 0.0
2014-Oct-22 22:33N 49°17' W 123°05'0 0.0
2014-Oct-22 21:33N 49°17' W 123°05'0 0.0
2014-Oct-22 20:33N 49°17' W 123°05'0 0.0
2014-Oct-22 19:33N 49°17' W 123°05'0 0.0
2014-Oct-22 18:33N 49°17' W 123°05'0 0.0
2014-Oct-22 17:33N 49°17' W 123°05'0 0.0
2014-Oct-22 16:33N 49°17' W 123°05'0 0.0
2014-Oct-22 15:33N 49°17' W 123°05'0 0.0
2014-Oct-22 14:33N 49°17' W 123°05'0 0.0
2014-Oct-22 13:33N 49°17' W 123°05'0 0.0
2014-Oct-22 12:33N 49°17' W 123°05'0 0.0
2014-Oct-22 11:33N 49°17' W 123°05'0 0.0
2014-Oct-22 10:33N 49°17' W 123°05'0 0.0
2014-Oct-22 09:33N 49°17' W 123°05'0 0.0
2014-Oct-22 08:33N 49°17' W 123°05'0 0.0
2014-Oct-22 07:33N 49°17' W 123°05'0 0.0
2014-Oct-22 06:33N 49°17' W 123°05'0 0.0
2014-Oct-22 05:33N 49°17' W 123°05'0 0.0
2014-Oct-22 04:33N 49°17' W 123°05'0 0.0
2014-Oct-22 03:33N 49°17' W 123°05'0 0.0
2014-Oct-22 02:30N 49°17' W 123°05'0 0.0
2014-Oct-22 01:33N 49°17' W 123°05'0 0.0
2014-Oct-22 00:33N 49°17' W 123°05'0 0.0
2014-Oct-21 23:33N 49°17' W 123°05'2 1.8
2014-Oct-21 22:34N 49°18' W 123°07'4 4.1
2014-Oct-21 21:31N 49°18' W 123°14'0 0.0
2014-Oct-21 20:28N 49°18' W 123°14'0 0.0
2014-Oct-21 19:31N 49°18' W 123°14'0 0.1
2014-Oct-21 18:28N 49°18' W 123°14'0 0.0
2014-Oct-21 17:31N 49°18' W 123°14'0 0.1
2014-Oct-21 16:31N 49°18' W 123°14'0 0.1
2014-Oct-21 15:31N 49°18' W 123°13'0 0.0
2014-Oct-21 14:31N 49°18' W 123°13'0 0.0
2014-Oct-21 13:31N 49°18' W 123°14'0 0.0
2014-Oct-21 12:31N 49°18' W 123°13'0 0.1
2014-Oct-21 11:31N 49°18' W 123°13'0 0.1
2014-Oct-21 10:31N 49°18' W 123°13'0 0.0
2014-Oct-21 09:31N 49°18' W 123°13'0 0.0
2014-Oct-21 08:31N 49°18' W 123°13'0 0.0
2014-Oct-21 07:31N 49°18' W 123°13'0 0.0
2014-Oct-21 06:31N 49°18' W 123°13'0 0.1
2014-Oct-21 05:28N 49°18' W 123°13'0 0.1
2014-Oct-21 04:31N 49°18' W 123°14'0 0.0
2014-Oct-21 03:31N 49°18' W 123°14'0 0.0
2014-Oct-21 02:28N 49°18' W 123°14'0 0.1
2014-Oct-21 01:31N 49°18' W 123°14'0 0.0
2014-Oct-21 00:28N 49°18' W 123°14'0 0.1
2014-Oct-20 23:31N 49°18' W 123°14'0 0.0
2014-Oct-20 22:31N 49°18' W 123°14'0 0.1
2014-Oct-20 21:31N 49°18' W 123°14'0 0.1
2014-Oct-20 20:31N 49°18' W 123°14'0 0.0
2014-Oct-20 19:31N 49°18' W 123°13'0 0.1
2014-Oct-20 18:28N 49°18' W 123°13'0 0.1
2014-Oct-20 17:31N 49°18' W 123°13'0 0.1
2014-Oct-20 16:31N 49°18' W 123°13'0 0.1
2014-Oct-20 15:31N 49°18' W 123°13'0 0.0
2014-Oct-20 14:31N 49°18' W 123°13'0 0.1
2014-Oct-20 13:31N 49°18' W 123°14'0 0.1
2014-Oct-20 12:31N 49°18' W 123°14'0 0.2
2014-Oct-20 11:28N 49°18' W 123°13'0 0.1
2014-Oct-20 10:31N 49°18' W 123°13'0 0.0
2014-Oct-20 09:31N 49°18' W 123°13'0 0.0
2014-Oct-20 08:31N 49°18' W 123°13'0 0.0
2014-Oct-20 07:31N 49°18' W 123°13'0 0.0
2014-Oct-20 06:31N 49°18' W 123°13'0 0.1
2014-Oct-20 05:31N 49°18' W 123°13'0 0.1
2014-Oct-20 04:31N 49°18' W 123°14'0 0.0
2014-Oct-20 03:28N 49°18' W 123°14'0 0.0
2014-Oct-20 02:28N 49°18' W 123°14'0 0.0
2014-Oct-20 01:31N 49°18' W 123°14'0 0.0
2014-Oct-20 00:28N 49°18' W 123°14'0 0.0
2014-Oct-19 23:28N 49°18' W 123°14'2 2.0
2014-Oct-19 22:33N 49°19' W 123°12'3 3.1
2014-Oct-19 21:31N 49°19' W 123°07'0 0.0
2014-Oct-19 20:32N 49°19' W 123°07'0 0.0
2014-Oct-19 19:32N 49°19' W 123°07'0 0.0
2014-Oct-19 18:32N 49°19' W 123°07'0 0.0
2014-Oct-19 17:32N 49°19' W 123°07'0 0.0
2014-Oct-19 16:32N 49°19' W 123°07'0 0.0
2014-Oct-19 15:32N 49°19' W 123°07'0 0.0
2014-Oct-19 14:32N 49°19' W 123°07'0 0.0
2014-Oct-19 13:32N 49°19' W 123°07'0 0.0
2014-Oct-19 12:32N 49°19' W 123°07'0 0.0
2014-Oct-19 11:32N 49°19' W 123°07'0 0.0
2014-Oct-19 10:29N 49°19' W 123°07'0 0.0
2014-Oct-19 09:32N 49°19' W 123°07'0 0.0
2014-Oct-19 08:32N 49°19' W 123°07'0 0.0
2014-Oct-19 07:32N 49°19' W 123°07'0 0.0
2014-Oct-19 06:32N 49°19' W 123°07'0 0.0
2014-Oct-19 05:32N 49°19' W 123°07'0 0.0
2014-Oct-19 04:32N 49°19' W 123°07'0 0.0
2014-Oct-19 03:32N 49°19' W 123°07'0 0.0
2014-Oct-19 02:32N 49°19' W 123°07'0 0.0
2014-Oct-19 01:32N 49°19' W 123°07'0 0.0
2014-Oct-19 00:32N 49°19' W 123°07'0 0.0
2014-Oct-18 23:32N 49°19' W 123°07'0 0.0
2014-Oct-18 22:29N 49°19' W 123°07'0 0.0
2014-Oct-18 21:32N 49°19' W 123°07'0 0.0
2014-Oct-18 20:32N 49°19' W 123°07'0 0.0
2014-Oct-18 19:32N 49°19' W 123°07'0 0.0
2014-Oct-18 18:32N 49°19' W 123°07'0 0.0
2014-Oct-18 17:32N 49°19' W 123°07'0 0.0
2014-Oct-18 16:29N 49°19' W 123°07'0 0.0
2014-Oct-18 15:32N 49°19' W 123°07'0 0.0
2014-Oct-18 14:32N 49°19' W 123°07'0 0.0
2014-Oct-18 13:32N 49°19' W 123°07'0 0.0
2014-Oct-18 12:32N 49°19' W 123°07'0 0.0
2014-Oct-18 11:32N 49°19' W 123°07'0 0.0
2014-Oct-18 10:32N 49°19' W 123°07'0 0.0
2014-Oct-18 09:32N 49°19' W 123°07'0 0.0
2014-Oct-18 08:32N 49°19' W 123°07'0 0.0
2014-Oct-18 07:32N 49°19' W 123°07'0 0.0
2014-Oct-18 06:32N 49°19' W 123°07'0 0.0
2014-Oct-18 05:32N 49°19' W 123°07'0 0.0
2014-Oct-18 04:32N 49°19' W 123°07'0 0.0
2014-Oct-18 03:32N 49°19' W 123°07'0 0.0
2014-Oct-18 02:32N 49°19' W 123°07'0 0.0
2014-Oct-18 01:32N 49°19' W 123°07'0 0.0
2014-Oct-18 00:32N 49°19' W 123°07'0 0.0
2014-Oct-17 23:32N 49°19' W 123°07'0 0.0
2014-Oct-17 22:32N 49°19' W 123°07'0 0.0
2014-Oct-17 21:32N 49°19' W 123°07'0 0.0
2014-Oct-17 20:32N 49°19' W 123°07'0 0.0
2014-Oct-17 19:32N 49°19' W 123°07'0 0.0
2014-Oct-17 18:32N 49°19' W 123°07'0 0.0
2014-Oct-17 17:32N 49°19' W 123°07'0 0.0
2014-Oct-17 16:32N 49°19' W 123°07'0 0.0
2014-Oct-17 15:32N 49°19' W 123°07'0 0.0
2014-Oct-17 14:32N 49°19' W 123°07'0 0.0
2014-Oct-17 13:32N 49°19' W 123°07'0 0.0
2014-Oct-17 12:32N 49°19' W 123°07'0 0.0
2014-Oct-17 11:32N 49°19' W 123°07'0 0.0
2014-Oct-17 10:32N 49°19' W 123°07'0 0.0
2014-Oct-17 09:32N 49°19' W 123°07'0 0.0
2014-Oct-17 08:32N 49°19' W 123°07'0 0.0
2014-Oct-17 07:32N 49°19' W 123°07'0 0.0
2014-Oct-17 06:32N 49°19' W 123°07'0 0.0
2014-Oct-17 05:32N 49°19' W 123°07'0 0.0
2014-Oct-17 04:32N 49°19' W 123°07'0 0.0
2014-Oct-17 03:32N 49°19' W 123°07'0 0.0
2014-Oct-17 02:32N 49°19' W 123°07'0 0.0
2014-Oct-17 01:32N 49°19' W 123°07'0 0.0
2014-Oct-17 00:32N 49°19' W 123°07'0 0.0
2014-Oct-16 23:32N 49°19' W 123°07'0 0.0
2014-Oct-16 22:32N 49°19' W 123°07'0 0.0
2014-Oct-16 21:32N 49°19' W 123°07'0 0.0
2014-Oct-16 20:32N 49°19' W 123°07'0 0.0
2014-Oct-16 19:32N 49°19' W 123°07'0 0.0
2014-Oct-16 18:32N 49°19' W 123°07'0 0.0
2014-Oct-16 17:32N 49°19' W 123°07'0 0.0
2014-Oct-16 16:32N 49°19' W 123°07'0 0.0
2014-Oct-16 15:32N 49°19' W 123°07'0 0.0
2014-Oct-16 14:32N 49°19' W 123°07'0 0.0
2014-Oct-16 13:32N 49°19' W 123°07'3 3.1
2014-Oct-16 12:34N 49°19' W 123°12'2 1.7
2014-Oct-16 11:33N 49°18' W 123°13'0 0.0
2014-Oct-16 10:33N 49°18' W 123°13'0 0.0
2014-Oct-16 09:33N 49°18' W 123°13'  

Dump ship's entire track history